Theta_e
299 299 299 300 301 302 302 303 305 306 308 309 313 316 319 320 320 320 322 326 328 330 331 330 330 331 331 330 329 327 326 326 322 323 330 332 334 336 336 340 338 339 337
300 300 299 300 300 299 300 301 303 304 306 307 309 312 314 318 320 321 320 323 325 325 327 329 329 329 329 329 327 326 327 329 326 323 329 330 331 333 336 336 337 337 337
299 298 298 297 297 297 298 300 302 303 303 303 305 308 311 315 317 318 318 319 321 325 326 327 327 327 326 327 328 328 329 330 329 328 326 328 329 329 330 332 334 336 335
297 297 296 297 297 297 297 297 298 300 300 301 303 307 309 311 315 318 318 318 319 321 324 326 326 327 326 326 326 325 324 324 326 325 325 324 326 329 329 330 330 332 333
296 296 296 297 297 298 298 298 298 299 301 302 303 304 305 306 309 314 316 316 318 320 321 323 326 327 325 326 327 327 326 324 322 321 322 322 323 322 326 327 329 329 329
295 295 296 298 298 298 298 299 298 298 299 299 300 301 302 304 303 305 310 314 317 318 319 320 324 324 323 318 319 320 325 324 321 321 320 320 324 325 326 326 324 324 323
295 296 298 298 298 298 298 298 298 298 298 298 301 301 302 303 301 302 305 311 314 316 318 319 322 325 323 325 316 314 314 314 319 324 322 323 324 322 322 324 324 323 324
295 296 297 297 297 298 298 298 298 298 297 297 298 300 301 302 301 301 303 310 313 315 317 320 322 322 323 324 324 322 322 321 319 324 326 326 326 322 327 327 325 325 324
294 295 296 297 297 297 297 298 298 298 297 297 298 299 301 302 301 300 302 311 313 314 318 320 322 321 311 307 323 320 321 322 312 310 312 307 305 306 316 323 321 323 321
294 295 296 296 297 297 298 299 299 299 298 298 298 299 301 303 303 299 301 309 313 313 317 319 309 318 304 303 320 320 319 317 314 311 309 305 308 310 310 326 326 324 322
294 295 295 296 297 299 299 300 299 298 298 297 298 300 301 303 305 300 299 312 312 313 315 317 319 303 300 301 309 319 318 315 311 314 313 313 314 317 320 322 327 325 323
293 294 294 296 298 300 298 298 299 298 296 296 298 300 302 304 303 301 297 298 306 313 313 317 314 298 298 300 309 302 302 310 318 317 315 315 315 316 316 317 321 325 331
292 292 294 296 299 299 297 297 297 297 296 296 298 300 302 307 310 299 298 297 297 307 316 310 300 298 299 300 298 299 304 317 315 314 312 311 314 317 318 319 321 324 327
290 292 294 296 299 299 298 298 297 297 297 298 299 300 303 307 312 312 309 305 298 307 303 303 302 300 302 303 306 308 312 312 310 309 308 311 315 317 322 326 323 323 321
290 292 293 295 298 299 299 298 298 299 298 296 298 300 300 304 309 302 302 309 314 307 305 307 306 306 307 306 307 307 308 309 308 309 312 316 320 320 322 325 323 324 321
289 291 292 295 298 300 299 299 296 294 294 294 292 293 299 298 294 293 293 297 296 299 308 307 305 306 306 306 305 305 308 308 311 313 315 316 316 318 322 324 323 322 320
289 291 293 294 297 299 299 300 298 299 297 295 293 293 293 297 294 293 293 295 296 303 308 308 307 307 306 307 307 309 308 311 312 313 313 314 315 316 320 322 322 320 321
289 291 291 293 298 300 300 301 300 299 299 301 298 293 292 293 293 293 295 300 308 305 308 306 305 305 306 306 308 310 310 311 312 312 313 314 316 318 319 321 323 321 320
288 289 289 292 294 295 299 300 300 300 301 300 302 300 299 296 296 297 300 310 307 306 307 307 307 308 308 308 310 310 308 309 310 311 313 315 317 319 320 320 320 307 311
287 287 287 289 290 291 292 295 298 298 299 299 300 299 299 304 307 307 308 309 309 308 308 307 307 309 308 309 309 309 307 308 309 310 312 314 316 318 319 319 319 317 318
285 285 286 286 286 287 288 289 291 293 294 297 299 299 288 300 302 305 307 307 308 310 310 310 310 310 310 309 309 308 308 308 309 311 313 314 317 319 319 320 320 321 318
283 284 284 284 284 285 285 286 287 288 290 292 295 298 290 300 300 302 303 305 307 308 309 310 311 311 311 310 309 309 309 309 309 311 314 315 317 318 320 321 321 321 319
282 281 282 282 283 283 283 284 284 284 286 288 290 292 294 296 298 300 301 303 304 306 307 310 311 312 312 313 313 312 310 310 311 313 315 315 315 316 317 317 319 320 319
280 280 279 280 280 280 281 281 282 282 284 285 286 287 288 291 293 294 299 301 302 305 306 308 309 310 311 311 311 312 312 313 313 313 315 315 314 308 314 315 316 319 320
279 279 279 279 279 279 279 280 280 281 282 283 283 284 285 287 288 290 292 294 299 302 304 306 307 309 310 309 309 310 302 291 309 301 315 314 313 312 313 313 314 318 319
279 279 278 278 278 278 278 279 279 279 280 281 282 282 284 284 285 286 288 288 290 294 301 304 304 307 309 308 309 299 290 289 298 291 311 313 312 313 314 314 315 317 320
Wind_Speed
7 7 6 9 10 10 9 10 11 11 12 12 12 11 11 11 10 10 10 10 11 11 11 13 16 14 12 10 9 9 10 11 13 11 5 5 5 6 5 6 6 6 4
6 8 12 12 11 12 13 13 12 14 12 13 12 13 13 12 11 11 11 10 11 12 13 16 16 12 16 12 10 13 12 12 11 16 7 4 6 4 5 6 5 4 4
11 11 12 12 12 12 13 13 13 10 12 14 16 16 14 13 12 12 12 12 12 12 13 15 17 17 16 12 14 12 10 8 8 5 5 4 4 1 3 2 4 4 4
11 11 12 12 13 13 14 14 15 15 16 15 16 16 14 14 14 13 12 13 14 13 14 16 18 19 18 16 15 14 13 12 10 10 6 6 3 4 5 4 4 3 4
12 13 13 13 13 14 13 13 13 14 15 16 17 17 15 16 13 15 14 15 16 12 13 16 19 21 26 23 15 15 14 11 10 11 10 5 8 6 8 4 4 3 4
13 14 13 13 14 14 15 15 15 14 15 17 17 17 17 14 21 21 18 11 13 13 14 16 20 24 25 27 30 26 19 15 11 8 8 11 14 12 7 7 5 4 4
13 13 14 14 15 15 16 16 16 15 14 15 16 15 15 16 20 21 27 14 10 13 14 16 18 14 19 21 21 16 15 17 18 15 17 15 15 11 10 8 5 4 4
13 14 15 16 17 17 17 17 16 14 13 13 15 14 14 14 23 23 27 12 9 14 14 19 15 14 14 18 16 16 14 13 14 10 14 14 13 12 14 11 9 6 3
14 15 16 16 17 18 18 18 15 12 11 12 14 15 15 15 20 20 14 6 11 14 14 16 13 14 14 18 16 13 11 9 6 9 10 10 4 11 10 9 6 7 3
14 16 16 17 17 17 18 15 10 10 11 10 13 14 16 16 18 15 8 7 9 10 11 11 17 17 20 19 14 14 13 10 9 6 5 9 10 10 11 9 9 9 5
15 16 17 16 16 14 15 12 9 9 9 11 12 12 14 15 13 13 13 6 8 8 4 9 9 17 20 21 17 13 12 13 10 9 8 7 7 7 5 5 8 8 5
15 16 16 16 13 10 13 11 10 9 10 10 10 11 9 11 13 9 11 12 11 8 5 6 4 12 18 20 17 12 15 15 10 9 9 8 7 6 6 6 6 5 2
15 16 15 15 13 11 11 11 9 8 7 7 8 9 9 7 6 9 9 10 12 10 6 3 13 14 13 10 18 19 14 10 9 9 8 4 3 4 6 6 5 5 4
15 15 14 13 13 12 9 8 7 6 6 7 8 8 9 7 6 2 3 4 9 1 11 8 8 11 11 11 10 8 8 7 8 8 6 5 5 5 6 5 5 7 4
13 13 12 11 13 12 10 7 6 5 5 7 8 8 9 9 4 5 6 4 4 9 11 7 7 8 9 8 6 7 7 7 7 5 7 7 7 6 4 6 6 7 3
12 10 11 10 10 9 9 8 7 9 13 12 11 9 8 9 7 9 11 7 13 13 7 8 7 7 10 7 7 6 5 7 7 7 7 6 6 5 7 5 6 6 6
11 12 11 11 9 9 10 8 7 9 12 12 9 13 5 8 11 10 11 17 15 7 7 5 7 6 6 6 6 6 5 4 5 6 7 7 7 7 7 6 5 4 5
12 18 10 10 10 9 9 8 5 6 9 10 8 5 8 9 13 15 12 13 8 5 4 5 5 4 6 7 5 6 6 6 5 5 5 5 6 7 7 7 7 6 5
12 11 12 10 10 12 10 9 8 7 7 8 10 11 12 13 13 13 13 7 7 4 4 6 5 5 6 6 6 6 6 5 4 5 5 5 5 5 6 6 5 6 6
11 20 16 11 10 11 10 10 9 9 8 7 7 9 10 10 5 6 6 8 7 5 3 5 3 4 6 6 6 6 5 5 4 4 4 4 4 3 6 7 6 5 4
10 11 18 11 11 11 10 10 10 10 11 9 8 8 9 7 10 10 8 7 6 5 4 4 3 2 5 5 6 7 6 5 4 4 4 4 4 4 4 5 5 5 4
11 11 11 11 11 11 11 10 10 10 11 10 11 11 12 7 6 5 6 7 5 3 3 2 1 1 3 5 6 7 6 6 5 4 4 5 4 5 4 3 4 4 4
12 13 12 10 11 14 11 11 11 11 11 12 11 11 11 11 9 8 6 2 3 3 3 2 3 3 3 4 5 6 7 7 6 6 6 5 4 3 2 2 3 4 5
13 14 14 12 11 11 11 11 11 14 12 12 11 12 11 11 11 11 9 9 5 3 3 3 2 5 4 4 4 4 4 5 5 6 7 6 4 4 2 1 2 6 5
12 12 11 13 13 12 12 11 11 12 11 10 11 11 11 11 11 12 11 11 11 10 8 5 2 4 7 5 3 5 5 8 7 6 6 6 4 3 3 3 4 5 6
11 12 11 10 11 13 13 12 12 11 11 11 10 10 10 11 11 11 11 11 10 10 13 9 8 10 8 5 4 4 6 7 6 7 5 4 4 4 4 5 7 6 7
Wind_Direction
316 308 308 308 301 298 294 291 288 289 283 278 281 283 279 263 249 236 230 227 228 226 225 236 236 232 232 225 217 207 221 223 227 226 252 245 252 217 199 193 164 179 169
306 319 318 317 321 313 302 291 285 280 282 285 277 270 270 271 261 251 249 241 234 232 224 227 235 235 236 215 201 205 205 205 213 232 183 229 237 244 225 188 188 178 179
321 316 305 293 287 287 290 291 281 275 282 285 288 275 265 262 260 255 253 254 247 238 235 233 231 230 235 226 221 208 186 178 178 168 163 165 211 213 241 211 194 209 203
297 290 287 288 286 281 280 284 289 290 288 283 275 266 268 266 259 249 246 250 248 243 240 239 235 229 224 212 198 184 174 171 172 181 166 198 196 227 250 185 179 202 199
296 295 288 283 282 283 283 283 284 286 287 280 275 267 271 267 262 255 249 249 244 242 252 253 244 233 219 204 200 195 197 192 182 179 189 147 170 200 206 183 171 157 200
294 287 290 292 297 293 288 283 278 276 280 279 273 267 265 260 258 253 251 258 260 262 259 265 254 237 223 205 207 206 203 204 201 195 204 198 190 201 180 169 133 153 195
291 295 302 298 293 290 288 282 276 274 276 277 278 260 263 268 263 259 259 254 262 263 260 260 252 237 218 214 214 216 208 205 207 204 199 201 192 180 170 161 149 145 168
306 307 303 305 301 296 291 283 274 269 271 276 279 267 266 268 262 257 250 243 256 259 255 252 239 230 218 211 207 209 216 214 210 202 205 194 191 174 167 182 162 125 93
309 307 307 301 299 298 293 289 275 267 269 275 279 269 269 274 267 258 235 238 248 254 253 238 228 213 188 184 193 185 185 178 114 132 136 122 100 138 154 126 137 145 136
309 306 304 301 298 301 304 305 283 268 269 277 279 276 281 274 272 262 238 235 246 249 250 240 214 211 183 179 181 168 177 165 144 129 110 92 145 163 160 145 147 156 124
308 305 303 300 300 301 310 307 286 280 280 285 281 273 275 273 279 262 235 238 245 251 268 249 203 201 173 184 172 167 179 146 146 146 131 126 153 150 144 136 157 151 154
309 306 302 300 299 303 308 309 299 290 291 291 288 285 277 271 249 252 248 230 247 243 259 283 169 164 167 163 154 144 149 138 152 142 142 149 149 155 161 161 152 175 174
310 304 303 303 298 301 300 303 300 295 293 300 296 293 288 285 278 245 265 274 277 244 254 203 143 140 116 113 130 138 144 139 141 145 143 135 151 143 130 134 155 177 126
307 307 306 313 308 309 299 296 302 304 320 314 314 314 316 287 280 252 250 251 250 231 68 72 67 83 93 117 130 121 118 132 143 137 131 117 118 129 146 147 146 157 131
313 310 315 315 311 314 307 310 302 285 275 305 308 303 304 305 302 302 284 244 178 112 116 130 115 118 131 107 88 98 108 117 117 118 126 127 130 132 132 137 144 149 120
322 320 318 312 315 315 316 324 291 256 282 285 265 269 293 266 328 291 238 225 130 136 119 132 115 128 121 132 129 117 114 122 126 126 127 127 126 128 137 143 141 141 137
331 328 327 327 321 324 326 345 342 322 308 309 311 333 0 296 309 306 181 150 128 89 114 111 124 127 134 129 120 123 126 129 131 136 145 144 141 134 133 126 121 131 143
344 345 338 331 333 337 340 351 353 337 329 338 348 0 22 9 340 356 119 118 103 75 112 124 106 110 140 123 124 122 122 128 123 122 117 129 140 138 133 139 148 155 152
351 350 344 343 345 348 345 347 348 349 355 355 358 7 355 345 332 8 54 71 92 93 102 101 115 167 125 114 115 120 122 121 115 120 116 118 139 137 134 135 136 147 142
354 358 3 356 352 355 355 351 350 352 352 358 1 0 357 353 7 28 35 50 59 82 79 125 137 171 132 132 131 133 121 120 115 111 106 106 115 145 144 143 139 157 183
356 356 2 5 0 359 355 358 356 353 354 351 358 1 350 7 5 9 26 28 31 43 53 74 89 130 111 123 135 143 148 138 126 115 107 109 114 118 136 138 141 148 151
3 2 3 4 359 360 1 0 359 358 354 355 355 352 351 22 16 26 18 17 349 0 9 47 153 136 133 149 154 152 149 149 139 126 113 101 95 96 122 131 143 174 162
11 9 6 4 4 2 2 3 5 1 356 356 355 359 360 359 6 354 349 0 25 12 343 287 263 258 190 180 176 167 167 175 165 163 150 140 129 120 120 103 173 195 197
13 12 11 6 5 4 4 1 0 4 359 358 358 356 359 353 351 354 352 332 350 340 311 342 291 271 259 196 195 196 187 165 164 178 165 156 159 157 164 206 227 217 203
17 14 10 9 7 1 358 1 1 359 359 3 356 355 351 351 352 352 354 350 345 334 334 301 308 308 280 256 224 204 191 173 180 164 162 168 190 213 239 250 242 226 196
17 17 13 9 6 5 1 356 357 358 356 355 354 353 352 350 348 346 347 346 340 332 334 323 328 312 295 274 258 198 169 183 172 180 189 186 205 222 230 236 232 230 210